Weather History for South Marsh 268, LA

Change the Weather History Date:

Saturday, August 30, 2014

  Actual Average Record
Temperature  
Mean Temperature 80 °F -  
Max Temperature 87 °F - - ()
Min Temperature 73 °F - - ()
Cooling Degree Days 15    
Growing Degree Days 30 (Base 50)    
Moisture  
Dew Point 75 °F    
Average Humidity 83    
Maximum Humidity 94    
Minimum Humidity 66    
Precipitation  
Precipitation 0.00 in - - ()
Sea Level Pressure  
Sea Level Pressure 29.99 in    
Wind  
Wind Speed 18 mph (SSE)    
Max Wind Speed 34 mph    
Max Gust Speed 34 mph    
Visibility 7 miles    
Events Fog    
T = Trace of Precipitation, MM = Missing Value Source: NWS Daily Summary

Daily Weather History Graph

Daily Weather History Graph

Search for Another Location

Airport:

Trip Planner

Search our weather history database for the weather conditions in past years. The results will help you decide how hot, cold, wet, or windy it might be!

Date:

Astronomy

Aug. 30, 2014 Rise Set
Actual Time 6:44 AM CDT 7:31 PM CDT
Civil Twilight 6:19 AM CDT 7:55 PM CDT
Nautical Twilight 5:51 AM CDT 8:24 PM CDT
Astronomical Twilight 5:22 AM CDT 8:53 PM CDT
Moon 11:07 AM CDT (8/30) 10:32 PM CDT (8/30)
Length of Visible Light 13h 35m
Length of Day
12h 47m
Waxing Crescent, 23% of the Moon is Illuminated
Aug 30
Waxing Crescent
Sep 2
First Quarter
Sep 8
Full
Sep 15
Last Quarter
Sep 24
New

Hourly Weather History & Observations

Time (CDT) Temp. Heat Index Dew Point Humidity Pressure Visibility Wind Dir Wind Speed Gust Speed Precip Events Conditions
12:15 AM 82.4 °F 90.9 °F 77.0 °F 84% 29.96 in 10.0 mi SE 25.3 mph - N/A   Mostly Cloudy
12:35 AM 82.4 °F 90.9 °F 77.0 °F 84% 29.96 in 10.0 mi SE 25.3 mph - N/A   Scattered Clouds
12:55 AM 82.4 °F 89.5 °F 75.2 °F 79% 29.97 in 10.0 mi SSE 21.9 mph - N/A   Clear
1:15 AM 82.4 °F 90.9 °F 77.0 °F 84% 29.97 in 10.0 mi SE 19.6 mph 26.5 mph N/A   Partly Cloudy
1:35 AM 82.4 °F 90.9 °F 77.0 °F 84% 29.96 in 10.0 mi SSE 20.7 mph - N/A   Partly Cloudy
1:55 AM 84.2 °F 94.1 °F 77.0 °F 79% 29.96 in 10.0 mi SE 23.0 mph - N/A   Scattered Clouds
2:15 AM 82.4 °F 90.9 °F 77.0 °F 84% 29.95 in 10.0 mi SE 24.2 mph - N/A   Scattered Clouds
2:35 AM 82.4 °F 90.9 °F 77.0 °F 84% 29.95 in 10.0 mi SE 24.2 mph - N/A   Clear
2:55 AM 84.2 °F 94.1 °F 77.0 °F 79% 29.95 in 10.0 mi SE 23.0 mph - N/A   Partly Cloudy
3:15 AM 84.2 °F 94.1 °F 77.0 °F 79% 29.94 in 10.0 mi SE 24.2 mph - N/A   Partly Cloudy
3:35 AM 84.2 °F 94.1 °F 77.0 °F 79% 29.94 in 10.0 mi SE 24.2 mph - N/A   Clear
3:55 AM 84.2 °F 94.1 °F 77.0 °F 79% 29.94 in 10.0 mi SE 26.5 mph - N/A   Clear
4:15 AM 84.2 °F 94.1 °F 77.0 °F 79% 29.94 in 10.0 mi SSE 25.3 mph - N/A   Partly Cloudy
4:35 AM 84.2 °F 94.1 °F 77.0 °F 79% 29.94 in 10.0 mi SSE 23.0 mph - N/A   Partly Cloudy
4:55 AM 84.2 °F 94.1 °F 77.0 °F 79% 29.93 in 10.0 mi SE 24.2 mph - N/A   Clear
5:15 AM 84.2 °F 96.1 °F 78.8 °F 84% 29.92 in 9.0 mi SE 25.3 mph - N/A   Clear
5:35 AM 82.4 °F 89.5 °F 75.2 °F 79% 29.92 in 9.0 mi SE 24.2 mph 31.1 mph N/A   Scattered Clouds
5:55 AM 84.2 °F 94.1 °F 77.0 °F 79% 29.92 in 8.0 mi SE 25.3 mph - N/A   Clear
6:15 AM 84.2 °F 94.1 °F 77.0 °F 79% 29.92 in 8.0 mi SSE 28.8 mph - N/A   Clear
6:35 AM 84.2 °F 94.1 °F 77.0 °F 79% 29.92 in 9.0 mi SSE 26.5 mph - N/A   Partly Cloudy
6:55 AM 84.2 °F 92.3 °F 75.2 °F 74% 29.94 in 10.0 mi SSE 27.6 mph 34.5 mph N/A   Partly Cloudy
7:15 AM 84.2 °F 94.1 °F 77.0 °F 79% 29.94 in 9.0 mi SSE 28.8 mph - N/A   Partly Cloudy
7:35 AM 86.0 °F 96.9 °F 77.0 °F 74% 29.95 in 9.0 mi SSE 26.5 mph - N/A   Clear
7:55 AM 86.0 °F 96.9 °F 77.0 °F 74% 29.95 in 9.0 mi SSE 28.8 mph - N/A   Mostly Cloudy
8:15 AM 86.0 °F 96.9 °F 77.0 °F 74% 29.95 in 8.0 mi SSE 25.3 mph 31.1 mph N/A   Mostly Cloudy
8:35 AM 86.0 °F 96.9 °F 77.0 °F 74% 29.96 in 8.0 mi SSE 8.1 mph 29.9 mph N/A   Mostly Cloudy
8:55 AM 78.8 °F - 75.2 °F 89% 29.98 in 3.0 mi Variable 5.8 mph 19.6 mph N/A   Haze
9:15 AM 73.4 °F - 69.8 °F 88% 30.01 in 0.2 mi Variable 6.9 mph 24.2 mph N/A Fog Fog
9:35 AM 77.0 °F - 75.2 °F 94% 30.01 in 2.5 mi Variable 4.6 mph - N/A   Mist
9:55 AM 78.8 °F - 75.2 °F 89% 30.00 in 3.0 mi Variable 3.5 mph 12.7 mph N/A   Mostly Cloudy
10:15 AM 78.8 °F - 77.0 °F 94% 30.00 in 3.0 mi Calm Calm - N/A   Clear
10:35 AM 78.8 °F - 75.2 °F 89% 30.01 in 4.0 mi Calm Calm 11.5 mph N/A   Clear
10:55 AM 80.6 °F 87.1 °F 77.0 °F 89% 30.01 in 6.0 mi Variable 4.6 mph 12.7 mph N/A   Haze
11:15 AM 84.2 °F 92.3 °F 75.2 °F 74% 30.01 in 9.0 mi Variable 11.5 mph 26.5 mph N/A   Scattered Clouds
11:35 AM 84.2 °F 90.9 °F 73.4 °F 70% 30.01 in 10.0 mi SSE 12.7 mph 24.2 mph N/A   Clear
12:15 PM 84.2 °F 92.3 °F 75.2 °F 74% 30.01 in 10.0 mi Variable 5.8 mph 15.0 mph N/A   Partly Cloudy
12:35 PM 84.2 °F 92.3 °F 75.2 °F 74% 30.01 in 9.0 mi Variable 5.8 mph 11.5 mph N/A   Partly Cloudy
12:55 PM 84.2 °F 92.3 °F 75.2 °F 74% 30.01 in 9.0 mi Variable 3.5 mph 12.7 mph N/A   Clear
1:15 PM 86.0 °F 95.1 °F 75.2 °F 70% 30.01 in 10.0 mi Variable 3.5 mph - N/A   Partly Cloudy
1:35 PM 86.0 °F 95.1 °F 75.2 °F 70% 30.01 in 10.0 mi Calm Calm 19.6 mph N/A   Mostly Cloudy
1:55 PM 87.8 °F 97.6 °F 75.2 °F 66% 30.01 in 10.0 mi Calm Calm - N/A   Scattered Clouds
2:15 PM 80.6 °F 85.4 °F 73.4 °F 79% 30.02 in 9.0 mi WNW 25.3 mph 32.2 mph N/A   Mostly Cloudy
3:15 PM 77.0 °F - 73.4 °F 89% 29.99 in 5.0 mi NW 21.9 mph - N/A   Haze
3:35 PM 78.8 °F - 73.4 °F 83% 29.99 in 6.0 mi NW 27.6 mph 34.5 mph N/A   Haze
3:55 PM 77.0 °F - 73.4 °F 89% 29.98 in 0.2 mi NW 12.7 mph 29.9 mph N/A Fog Fog
4:15 PM 75.2 °F - 73.4 °F 94% 30.00 in 0.2 mi WNW 34.5 mph - N/A Fog Fog
4:35 PM 75.2 °F - 73.4 °F 94% 30.03 in 0.8 mi NW 13.8 mph 27.6 mph N/A   Overcast
4:55 PM 75.2 °F - 73.4 °F 94% 30.01 in 1.8 mi NW 16.1 mph - N/A   Overcast
5:15 PM 77.0 °F - 73.4 °F 89% 30.03 in 6.0 mi NW 17.3 mph - N/A   Overcast
5:35 PM 75.2 °F - 73.4 °F 94% 30.03 in 0.8 mi NW 10.4 mph 19.6 mph N/A   Overcast
5:55 PM 75.2 °F - 73.4 °F 94% 30.03 in 0.8 mi West 9.2 mph 17.3 mph N/A   Overcast
6:15 PM 75.2 °F - 73.4 °F 94% 30.03 in 2.5 mi Variable 4.6 mph - N/A   Mostly Cloudy
6:35 PM 75.2 °F - 73.4 °F 94% 30.02 in 9.0 mi Variable 5.8 mph - N/A   Mostly Cloudy
6:55 PM 77.0 °F - 73.4 °F 89% 30.02 in 7.0 mi Calm Calm - N/A   Scattered Clouds
7:15 PM 77.0 °F - 73.4 °F 89% 30.04 in 8.0 mi Calm Calm - N/A   Partly Cloudy
7:35 PM 77.0 °F - 73.4 °F 89% 30.05 in 2.0 mi SSE 9.2 mph - N/A   Mostly Cloudy
7:55 PM 77.0 °F - 73.4 °F 89% 30.05 in 3.0 mi SE 11.5 mph - N/A   Overcast
8:15 PM 75.2 °F - 73.4 °F 94% 30.05 in 3.0 mi SSE 9.2 mph - N/A   Mostly Cloudy
8:35 PM 77.0 °F - 73.4 °F 89% 30.05 in 7.0 mi SSE 8.1 mph - N/A   Unknown
8:55 PM 77.0 °F - 73.4 °F 89% 30.04 in 5.0 mi Variable 3.5 mph - N/A   Mostly Cloudy
9:15 PM 75.2 °F - 71.6 °F 89% 30.04 in 7.0 mi Variable 3.5 mph - N/A   Unknown
9:35 PM 77.0 °F - 71.6 °F 83% 30.05 in 9.0 mi Variable 3.5 mph - N/A   Unknown
9:55 PM 77.0 °F - 71.6 °F 83% 30.04 in 10.0 mi Calm Calm - N/A   Unknown
10:15 PM 77.0 °F - 71.6 °F 83% 30.03 in 10.0 mi Calm Calm - N/A   Overcast
10:35 PM 78.8 °F - 73.4 °F 83% 30.02 in 10.0 mi SSE 9.2 mph - N/A   Overcast
10:55 PM 78.8 °F - 73.4 °F 83% 30.02 in 10.0 mi SSE 11.5 mph - N/A   Overcast
11:15 PM 78.8 °F - 73.4 °F 83% 30.00 in 10.0 mi SSE 15.0 mph - N/A   Scattered Clouds
11:35 PM 80.6 °F 85.4 °F 73.4 °F 79% 30.00 in 10.0 mi SE 17.3 mph - N/A   Scattered Clouds
11:55 PM 80.6 °F 85.4 °F 73.4 °F 79% 30.00 in 10.0 mi SE 19.6 mph - N/A   Mostly Cloudy